SCP
1 1 2 2 1 1 1 1 1 1 0 0 0 0 0 0 0 0 0 0 0 0 0 0 0 0 0 0 1 1 1 1 1 1 1 1 1 1
1 2 1 1 1 1 1 1 1 1 1 1 1 1 1 1 0 0 0 0 0 0 0 0 0 0 0 0 0 0 0 0 0 0 0 1 1 1
2 2 1 1 1 1 1 1 1 1 1 1 1 1 1 1 1 1 1 1 0 0 0 0 0 0 0 0 0 0 0 0 0 0 0 0 0 0
2 1 1 1 1 1 1 1 1 1 1 1 1 1 1 1 1 1 1 1 1 1 0 0 0 0 0 0 0 0 0 0 0 0 0 0 0 0
1 1 1 1 1 1 1 1 1 1 1 1 1 1 1 1 1 1 1 1 1 1 0 0 0 0 0 0 0 0 0 0 0 0 0 0 0 0
1 1 1 1 1 1 0 1 1 1 1 1 1 1 1 1 1 1 1 1 1 1 0 0 0 0 0 0 0 0 0 0 0 0 0 0 0 0
1 1 0 0 0 0 0 0 1 1 1 1 2 1 1 1 1 1 1 1 1 1 1 0 0 0 0 0 0 0 0 0 0 0 0 0 0 0
1 1 1 0 0 0 0 0 1 1 1 2 2 2 2 1 2 2 2 2 2 1 1 0 0 0 0 0 0 0 0 0 0 0 0 0 0 0
1 1 1 1 1 1 1 1 1 1 1 1 2 2 2 2 2 2 2 2 2 1 1 1 0 0 0 0 0 0 0 0 0 0 0 0 0 0
2 1 1 1 1 1 1 1 1 1 1 1 1 1 1 2 2 2 3 2 2 1 1 1 1 0 0 0 0 0 0 0 0 0 0 0 0 0
3 2 1 1 1 1 1 2 2 1 1 1 1 1 1 1 2 2 3 3 2 1 1 1 1 1 1 0 0 0 0 0 0 0 0 0 0 0
5 3 2 1 1 1 1 1 1 1 1 1 1 1 1 1 1 2 3 2 2 1 1 1 1 1 1 1 1 1 1 0 0 0 0 0 0 0
8 6 3 1 0 0 1 1 1 1 1 1 1 1 1 2 2 2 2 2 1 1 1 1 2 2 2 2 1 1 1 1 0 0 0 0 0 0
11 8 4 1 0 0 0 0 0 1 1 2 2 2 2 2 2 2 1 1 1 1 1 1 2 2 3 2 2 1 1 1 0 0 0 0 0 0
10 8 4 1 0 0 0 0 0 1 2 2 3 3 2 2 2 2 1 1 1 1 1 1 1 2 3 2 2 2 1 1 0 0 0 0 0 0
6 5 2 1 1 0 1 1 1 1 2 3 3 3 3 2 1 2 2 2 1 1 1 1 1 2 3 2 2 2 1 1 1 0 0 0 0 0
4 3 2 2 1 1 1 1 1 1 2 3 3 3 3 2 1 2 2 2 2 1 1 2 2 2 2 2 2 2 1 1 1 1 1 0 0 0
4 4 4 3 3 3 2 2 2 2 2 2 3 3 2 2 2 2 2 2 2 2 2 2 2 2 2 2 2 2 1 1 1 1 1 1 1 1
4 5 6 5 5 4 4 3 3 2 2 2 2 2 2 2 2 2 2 2 2 2 2 2 3 3 3 2 2 1 1 1 1 1 1 1 1 1
5 6 7 6 5 5 4 4 4 3 3 3 3 2 2 2 2 2 2 2 2 1 2 2 2 3 3 3 2 1 1 1 1 0 1 1 1 1
4 5 5 5 4 4 4 4 5 4 4 3 3 3 3 2 2 2 2 2 2 2 2 2 2 2 3 3 2 1 0 0 0 0 0 0 0 0
4 4 4 3 3 3 3 4 4 4 3 3 3 3 3 2 2 2 2 2 2 2 2 2 2 2 1 2 1 1 0 0 0 0 0 0 0 0
4 4 3 3 3 3 3 2 2 2 2 3 3 3 2 2 2 2 2 2 2 2 3 3 2 1 1 1 1 0 0 0 0 0 0 0 0 0
Wind_Speed
1 1 1 0 1 1 2 2 3 1 1 1 1 1 1 1 1 2 2 2 3 3 3 2 2 1 1 1 1 0 0 0 1 1 1 2 2 2
1 2 1 0 0 1 1 1 1 2 1 1 2 2 1 1 1 1 2 2 3 3 3 3 3 2 1 1 1 1 1 1 1 1 1 1 2 2
1 2 1 1 1 1 1 1 1 2 2 1 1 1 0 0 1 0 1 1 1 3 3 3 3 3 2 2 2 2 2 2 2 2 2 2 2 2
1 2 1 1 1 1 1 1 1 1 2 1 1 0 0 0 1 1 1 1 1 2 3 3 3 3 3 3 3 3 2 2 2 2 2 2 2 2
2 2 1 2 1 1 1 1 1 1 1 2 1 0 0 0 1 1 1 1 1 1 2 2 3 3 4 4 4 3 3 3 3 2 2 2 2 2
1 1 1 2 2 1 1 1 1 1 1 2 1 0 0 1 0 0 1 1 1 1 1 1 2 3 4 4 4 4 4 3 3 3 2 2 2 2
1 1 1 1 2 2 1 2 2 2 1 1 1 1 0 0 1 1 1 1 1 1 1 1 1 2 2 3 4 4 4 4 4 3 3 3 3 2
1 1 1 1 1 1 2 2 3 3 2 2 1 2 2 2 1 1 1 1 1 0 1 2 1 2 2 2 3 4 4 4 4 4 4 3 3 3
2 1 1 0 1 1 1 1 1 2 3 3 3 3 3 3 2 2 2 2 2 1 1 2 1 3 3 3 3 3 3 3 4 4 4 4 4 4
3 3 2 1 1 1 1 1 1 2 3 3 3 4 3 3 3 3 3 2 2 1 2 2 1 2 3 3 3 3 3 3 3 4 4 4 4 4
2 2 3 3 3 3 3 2 1 2 2 3 3 3 3 2 3 2 2 1 2 2 1 2 1 2 2 3 2 3 3 3 3 3 3 3 4 4
2 2 3 4 4 4 4 3 3 3 2 1 1 2 2 2 3 3 3 2 2 2 2 2 1 1 2 2 2 1 2 2 3 3 2 3 3 2
3 2 3 4 5 5 4 4 4 3 1 1 1 1 1 1 2 2 3 3 3 3 2 3 2 2 2 2 2 1 1 1 1 1 1 2 3 3
4 3 3 4 5 5 4 3 3 2 1 1 1 2 2 2 2 2 3 4 4 4 3 4 3 3 2 2 2 2 1 1 1 1 1 1 2 3
3 4 3 3 4 3 4 4 3 2 2 2 2 3 2 3 2 2 2 2 3 3 3 3 4 3 3 3 2 2 2 2 1 1 1 1 1 1
3 3 3 2 2 2 2 2 3 3 3 3 3 3 1 1 1 1 1 1 1 2 2 3 3 4 3 3 3 2 2 2 1 1 1 2 2 2
3 1 1 1 2 2 2 2 2 2 3 3 3 2 2 2 2 1 1 1 2 2 3 1 1 2 3 3 3 3 3 2 2 2 2 2 3 3
4 3 3 4 4 4 3 3 3 3 4 3 3 3 3 3 2 2 2 2 3 3 3 2 1 0 1 2 4 4 3 2 2 2 2 3 3 3
4 4 4 4 4 4 4 4 4 3 3 3 4 4 3 3 2 2 2 2 3 3 3 2 1 2 3 4 2 4 4 3 2 2 3 3 4 4
4 5 5 4 4 4 4 4 4 3 3 3 3 3 3 3 3 3 3 3 3 3 3 2 2 3 4 4 3 3 5 4 3 3 3 3 3 4
5 5 5 5 5 4 4 4 4 3 3 3 3 3 3 3 3 3 3 3 3 3 4 4 3 3 2 1 2 3 3 4 5 4 3 3 3 3
5 5 5 5 5 4 4 4 4 4 4 3 3 3 3 3 3 4 3 3 3 4 4 3 1 1 2 3 4 4 4 2 2 4 5 5 3 3
5 5 4 4 4 4 4 5 5 4 4 4 4 3 3 3 3 3 3 3 3 4 3 2 1 2 2 3 3 3 4 4 2 2 3 4 6 7
Wind_Direction
145 141 141 173 168 174 168 167 163 181 263 288 287 290 257 232 246 216 214 203 194 198 203 200 202 207 215 216 195 161 351 296 291 289 288 284 289 294
117 112 98 90 103 132 161 171 174 170 202 262 257 281 271 252 219 207 212 213 215 214 214 213 211 209 220 225 222 222 235 269 277 272 274 274 274 279
100 116 105 94 96 99 111 137 154 158 185 262 277 294 227 347 356 227 221 228 224 219 221 217 215 220 228 231 239 247 252 263 269 269 270 271 261 271
121 116 118 113 102 113 131 142 162 177 176 206 265 314 283 325 323 303 298 252 231 218 216 218 221 229 237 240 245 251 259 264 264 263 268 273 269 276
135 142 153 136 143 158 152 142 169 156 167 173 189 145 339 16 42 357 355 325 288 222 216 228 237 242 246 246 247 250 253 255 257 257 260 272 276 283
126 142 158 162 174 181 168 168 157 134 138 148 145 136 282 330 81 20 344 353 325 338 324 277 259 257 256 254 247 244 242 242 241 242 246 258 265 273
125 150 161 154 161 171 172 179 166 160 149 147 165 152 216 223 235 218 257 315 298 273 301 308 284 276 268 257 252 246 239 238 235 236 238 242 245 252
167 195 187 172 177 176 166 167 171 172 177 175 196 217 238 222 207 206 214 254 282 268 266 291 277 273 271 261 260 248 242 237 229 229 232 236 240 242
183 190 206 122 141 165 147 140 191 207 191 188 207 227 233 221 193 202 214 223 248 270 225 269 269 270 273 268 255 236 235 234 232 226 225 227 231 236
202 200 196 216 209 177 177 189 235 244 226 216 224 240 242 225 206 206 212 228 268 254 213 251 266 277 289 278 260 249 252 247 238 229 232 235 232 229
220 214 209 220 225 185 176 204 253 282 260 232 234 247 255 222 180 164 178 194 264 260 207 236 259 279 282 272 269 260 266 265 257 245 242 240 236 228
229 232 222 221 216 182 180 192 225 256 266 277 280 297 276 240 198 198 201 209 235 249 200 206 228 250 276 269 278 281 279 270 256 247 246 245 231 219
218 230 237 218 210 201 192 204 223 224 228 246 277 295 294 275 246 224 215 210 219 236 206 191 214 218 242 275 285 286 289 298 296 283 255 243 221 212
218 226 234 214 205 205 206 219 216 196 207 230 261 276 277 274 267 254 237 233 235 244 227 197 214 210 218 250 267 287 288 285 268 277 285 248 232 232
222 220 218 205 199 209 222 216 201 197 203 226 249 261 263 271 276 269 261 250 258 254 234 220 223 216 217 233 247 258 276 282 252 242 252 260 254 246
218 215 210 202 201 221 228 220 211 210 211 229 245 257 267 266 261 254 258 265 278 286 262 231 223 213 218 229 231 250 257 261 264 248 249 258 249 237
181 181 195 203 220 233 239 238 226 216 223 232 239 248 250 253 258 247 230 230 246 269 287 288 235 225 229 225 231 243 251 259 259 248 243 263 259 248
165 195 212 217 223 230 236 241 233 227 227 226 230 236 240 245 255 250 231 238 251 264 271 272 243 230 259 246 219 241 252 261 262 240 235 254 271 262
185 212 219 223 227 229 229 230 233 233 228 224 227 230 235 240 242 246 242 242 255 266 269 263 223 216 255 279 267 212 232 254 250 250 248 249 268 278
214 221 226 227 228 229 230 231 235 234 228 230 229 225 224 230 235 241 243 248 257 266 270 259 237 229 236 256 265 261 229 233 240 251 263 264 270 274
220 225 226 224 227 227 229 229 227 226 229 232 236 232 225 223 234 241 245 249 251 256 261 262 262 254 248 231 252 263 259 233 230 241 251 262 273 274
226 226 226 226 224 220 217 218 224 226 226 227 233 234 230 223 232 240 241 243 247 251 260 270 274 228 212 234 261 274 281 284 256 241 239 234 245 257
231 229 229 227 224 219 214 216 220 224 222 223 225 229 231 230 231 232 237 241 250 259 262 263 258 232 240 246 262 274 278 280 280 272 268 254 242 253